Погода в Лаукуве

Поиск расширенной информации на нашем сайте:

Полезная информация:

Новости сайта



02.01.2020
Опубликован Долгосрочный прогноз погоды по городам России и ближнего зарубежья на январь 2020 года.
Карты: Прогноз на январь и февраль 2020 года, Сравнение прогнозируемой аномалии приземной температуры воздуха на январь 2020 года по разным моделям.




Погода в Лаукуве - сегодня

Время (UTC), дата Ветер
(°,м/с) 
Видим.   Явления Облачность Т
(°С)
Тd
(°С)
f(%) Тe
(°С)
Pmin
(гПа)
dP
(гПа)
Po
(мм)
O2
(г/м3)
Тmin Tmax R s Состояние
почвы
09 26.02.20 220 (ЮЗ) 6-9{10}  20000 м    8/1 1000 м средняя, верхняя 
[Cu hum|Ac trans|Ci sp]
+2.8 +0 82 988  0.1  726  289           
12 26.02.20 220 (ЮЗ) 7-11{12}  20000 м    9/9 800 м 
[Sc]
+3.8 -0.6 73 +1  988.6  0.7  726  289           
15 26.02.20 220 (ЮЗ) 6-9{12}  20000 м    9/6 1000 м средняя, верхняя 
[Sc|Ac trans|Ci sp]
+4 -2.1 64 +1  989.2  0.6  727  289           
18 26.02.20 230 (ЮЗ) 4-7{09}  20000 м  {ливн. осадки}  8/5 1380 м средняя, верхняя 
[Sc|Ac trans|Ci sp]
+2.3 -0.6 81 990.4  1.1  728  291    +5.2  0.0     
21 26.02.20 230 (ЮЗ) 4-7{10}  20000 м  в посл. час ливневой дождь  6/6 1000 м 
[Sc]
+1.4 -0.5 87 -1  990.6  0.1  728  292           
00 27.02.20 220 (ЮЗ) 4-6{10}  15000 м  слаб. ливневой дождь  10/10 800 м кучево-дожд. 
[Cb cap]
+0.4 -0.4 94 -2  991.4  0.7  728  293      0.0     
03 27.02.20 210 (ЮЗ) 6-9{10}  20000 м  {ливн. осадки}  10/10 270 м 
[St]
+0 -1 93 -3  991.1  -0.3  728  293           
06 27.02.20 230 (ЮЗ) 6-9{11}  2700 м  слаб. снег{ливн. осадки}  10/10 150 м 
[Frnb|Ns]
+0 -0.4 97 -3  991.6  0.5  728  294  -0.1    0.7  равномерный
мокрый или
старый снег
100% 
09 27.02.20 230 (ЮЗ) 7-12{12}  2800 м  слаб. снег  10/10 150 м 
[Frnb|Ns]
+0 -0.7 95 -4  992.3  0.6  729  294           
12 27.02.20 260 (З) 6-11{12}  6000 м  слаб. снег{дождь}  10/10 240 м 
[Frnb|Ns]
+0.4 -0.3 95 -3  992.8  0.7  729  293      <0.5   
15 27.02.20 250 (З) 7-12{13}  20000 м  слаб. ливневой дождь{снег}  10/10 300 м кучево-дожд. 
[Cb cap]
+0.1 -1.4 90 -4  994.1  1.1  730  294           
18 27.02.20 250 (З) 5-9{12}  4800 м  слаб. снег{ливн. осадки} [диам. гололёда 0 мм]  10/10 210 м 
[Frnb|Ns]
-0.3 -1.7 90 -3  994.6  0.5  731  295    +0.8  <0.5   
21 27.02.20 260 (З) 5-9{11}  5000 м  слаб. снег{дождь} [диам. гололёда 1 мм]  10/10 150 м 
[Frnb|Ns]
-0.2 -0.9 95 -3  995  0.4  731  295           
00 28.02.20 270 (З) 5-8{11}  1200 м  снег{дождь} [диам. гололёда 1 мм]  10/10 120 м 
[Frnb|Ns]
-0.1 -0.5 97 -3  996.9  1.8  732  295      0.8   
03 28.02.20 270 (З) 5-7{09}  19000 м  слаб. снег [диам. гололёда 1 мм]  10/10 210 м 
[Frnb|Ns]
-0.3 -1 95 -3  998.2  1.2  733  296           
06 28.02.20 240 (ЮЗ) 3-5{07}  20000 м  в посл. час снег  10/10 270 м 
[St]
-0.6 -1.3 95 -2  999.6  1.3  734  297  -1    равномерный
мокрый или
старый снег
100% 
09 28.02.20 280 (З) 3-5{06}  20000 м  в посл. час дождь{снег}  10/10 120 м 
[St]
+0.5 -0.5 93 -1  1002.1  2.6  736  296           
12 28.02.20 290 (З) 3-4{06}  20000 м  в посл. час ливневой снег  8/8 700 м 
[Sc]
+1.5 -0.6 86 1004.1  738  296      0.7   
15 28.02.20 290 (З) 3-4{09}  20000 м    9/8 1500 м верхняя 
[Sc|Ci fib]
+1.3 -1 85 1005.6  1.5  739  296           
18 28.02.20 230 (ЮЗ) 3-4{06}  20000 м  {ливн. осадки}  9/3 1000 м средняя, верхняя 
[Sc|Ac trans|Ci sp]
-0.2 -1.5 91 -2  1006.7  0.9  740  298    +1.8  0.7  <0.5   
21 28.02.20 180 (Ю) 2-4{06}  5000 м  слаб. снег  10/10 150 м 
[Frnb|Ns]
-0.2 -0.6 97 -1  1006.5  -0.2  739  298           
00 29.02.20 260 (З) 2-3{05}  0500 м  туман{снег}  ?/?  
-0.3 -0.6 98 -1  1007.1  0.6  740  298       
03 29.02.20 тихо () -2{03}  0900 м  туман  ?/?  
-1.2 -1.5 98 -1  1007.5  0.3  740  300           
06 29.02.20 190 (Ю) 2-3{04}  15000 м  в посл. час снег{туман}  10/10 120 м 
[St]
-1.5 -1.7 99 -2  1007.3  0.1  740  300  -2.8    равномерный
мокрый или
старый снег
100% 
09 29.02.20 210 (ЮЗ) 5-7{07}  0900 м  туман{снег}  ?/?  
+0.3 -0.1 97 -3  1006.2  -0.8  739  297           
Время (UTC), дата Ветер
(°,м/с) 
Видим.   Явления Облачность Т
(°С)
Тd
(°С)
f(%) Тe
(°С)
Pmin
(гПа)
dP
(гПа)
Po
(мм)
O2
(г/м3)
Тmin Tmax R s Состояние
почвы

Для получения пояснительной информации подведите курсор к названию столбца.

ПОГОДА в Лаукуве - архив

Всё, что Вы хотите узнать о погоде в Лаукуве - удобно и подробно!

Выберите нужную дату (начиная с 1 января 2019* года) и нажмите кнопку "Найти".
Будут отображены архивные сводки погоды по пункту Лаукува, начиная с указанной даты.


Отображать данные в формате CSV (для использования в таблицах Excel)


Внимание! Наш архив погоды предназначен исключительно для личного некоммерческого использования в познавательных целях. Если Вам необходимы официальные справки о состоянии погоды (для производственных, юридических, коммерческих и т.п. целей), обращайтесь в органы Росгидромета.

*Примечание: данная дата относится к архиву по метеостанциям СССР (Россия, СНГ, Балтия).
Архив по метеостанциям Зарубежной Европы и Азии (кроме Китая) хранится 10 дней, по другим регионам земного шара (Китай, Африка, Америка, Австралия, Океания) - 1 день.

Лаукува - район местоположения метеостанции


Название, широта, долгота, высота метеостанции:
Лаукува 55.6°ш. 22.2°д. 166 м над ур. моря [Литва]

Дополнительная информация

В oтличие oт бoльшинства пoгoдных сайтoв мы публикуем пoдрoбную метеoинфoрмацию в детальнoм прoфессиoнальнoм фoрмате.

Характеристики температуры и влажнoсти вoздуха измеряются на высoте 2 м в тени вдали oт зданий и деревьев.
Скoрoсть ветра измеряется на высoте 10 м (на урoвне рoста челoвека скoрoсть ветра ниже в 1.5-2 раза). Если метеoстанция нахoдится в гoрoде или в лесу, тo скoрoсть ветра занижена на 2-4 м/с пo сравнению с oткрытым местoм. Скoрoсть ветра над акватoриями крупных рек и oзёр, а также на вершинах хoлмoв на 2-5 м/с выше, чем в oбычных услoвиях.
Атмoсфернoе давление в разных тoчках местнoсти мoжет значительнo oтличаться oт давления на метеoстанции, в зависимoсти oт услoвий рельефа (при пoдъёме на 10 м давление пoнижается примернo на 1 мм рт.ст.).